Вернуться в каталог

STARLINK-30583

АктивенСвязьVLEO
NORAD 58086·PAYLOAD·🇺🇸 United States

Запущен Oct 18, 2023 с Cape Canaveral Space Force Station

Loading…

Ближайшие Пролёты (ближайшие 24 часа)

TLE

СвежийSource: CelesTrak SupGP

Эпоха: Sep 14, 2026, 21:08 UTC

1 58086C 23160M   26257.88104167  .00020118  00000+0  72820-3 0  2576
2 58086  43.0002  92.9554 0001183 265.1191 282.5756 15.27589961    19

Отслеживайте STARLINK-30583 в реальном времени с AllMySat

Download on the App Store